Location: Bonnesvalyn
(49.1218°N, 3.3177°E)
Time: 15:41:20
(UTC+00:00)

Landsat 7 - Pass Details

Date: 09 February 2023
Orbit: 692 x 694 km, 97.9° (Epoch: 26 March)

Event Time Altitude Azimuth Distance (km) Brightness Sun altitude
Exits shadow 19:14:45 66° 96° (E) 762 3.7 -23.0°
Maximum altitude 19:15:01 68° 73° (ENE) 754 3.7 -23.0°
Drops below altitude 10° 19:19:43 10° 351° (N) 2,165 6.5 -23.8°
Sets 19:21:59 0° 349° (N) 3,087 7.3 -24.2°
